FW8699 Weather Reports


time (UTC)temp
C
wind
direction
speed
KPH
gust
KPH
rain 1hr
cm
rain 24hr
cm
rain mn
cm
humidity
%
barometer
mb
20260906113056 22 36 0.0 3.2 0.00 0.08 0.00 98 1013.1
20260906111625 22 0 0.0 1.6 0.00 0.08 0.00 98 1012.8
20260906104608 22 0 0.0 4.8 0.00 0.08 0.00 98 1012.3
20260906103056 22 0 0.0 3.2 0.00 0.08 0.00 98 1012.1
20260906101604 22 0 0.0 1.6 0.00 0.08 0.00 98 1012.2
20260906100058 22 0 0.0 3.2 0.00 0.08 0.00 98 1011.9
20260906094558 22 0 0.0 0.0 0.00 0.08 0.00 98 1011.8
20260906093104 22 0 0.0 4.8 0.00 0.08 0.00 98 1011.7
20260906091600 22 115 0.0 8.0 0.00 0.08 0.00 98 1011.7
20260906090115 22 0 0.0 3.2 0.00 0.08 0.00 98 1011.7
20260906084610 22 0 0.0 1.6 0.00 0.08 0.00 98 1011.5
20260906083103 22 0 0.0 1.6 0.00 0.08 0.00 98 1011.5
20260906081607 22 0 0.0 0.0 0.00 0.08 0.00 98 1011.2
20260906074607 22 0 0.0 0.0 0.00 0.08 0.00 98 1011.0
20260906073107 22 0 0.0 0.0 0.00 0.08 0.00 97 1010.9
20260906071600 22 0 0.0 0.0 0.00 0.08 0.00 97 1010.9
20260906070134 22 0 0.0 0.0 0.00 0.08 0.00 97 1010.9
20260906064556 22 0 0.0 0.0 0.00 0.08 0.00 97 1011.1
20260906063105 22 0 0.0 0.0 0.00 0.08 0.00 97 1011.1
20260906061627 22 0 0.0 0.0 0.00 0.08 0.00 97 1011.2
20260906060104 22 0 0.0 0.0 0.00 0.08 0.00 97 1011.4
20260906054602 22 0 0.0 0.0 0.00 0.08 0.00 97 1011.7
20260906053102 22 0 0.0 0.0 0.00 0.08 0.00 97 1011.7
20260906051604 22 0 0.0 0.0 0.00 0.08 0.00 97 1011.9
20260906050115 22 0 0.0 0.0 0.00 0.08 0.00 97 1012.0
20260906044603 22 0 0.0 0.0 0.00 0.08 0.00 97 1012.0
20260906043111 22 0 0.0 1.6 0.00 0.08 0.00 97 1012.2
20260906041601 22 0 0.0 4.8 0.00 0.08 0.00 97 1012.2
20260906040115 23 223 1.6 4.8 0.00 0.08 0.00 97 1012.2
20260906034559 23 213 1.6 4.8 0.00 0.08 0.08 97 1012.3
20260906033103 23 0 0.0 0.0 0.00 0.08 0.08 96 1012.3
20260906031608 23 0 0.0 3.2 0.00 0.08 0.08 96 1012.4
20260906030110 23 0 0.0 0.0 0.00 0.08 0.08 96 1012.3
20260906024603 23 0 0.0 0.0 0.00 0.08 0.08 96 1012.4
20260906023122 23 0 0.0 4.8 0.00 0.08 0.08 96 1012.4
20260906021600 23 119 3.2 6.4 0.00 0.08 0.08 96 1012.2
20260906020057 23 0 0.0 0.0 0.00 0.08 0.08 95 1012.0
20260906014626 23 0 0.0 0.0 0.00 0.08 0.08 95 1011.8
20260906013100 23 0 0.0 0.0 0.00 0.08 0.08 95 1011.8
20260906011558 23 0 0.0 0.0 0.00 0.08 0.08 95 1011.6
20260906010058 23 0 0.0 0.0 0.00 0.08 0.08 94 1011.8
20260906004613 24 0 0.0 0.0 0.00 0.08 0.08 93 1011.7
20260906003100 24 0 0.0 0.0 0.00 0.08 0.08 92 1011.7
20260906001557 24 0 0.0 3.2 0.00 0.08 0.08 92 1011.5
20260906000111 25 285 3.2 4.8 0.00 0.08 0.08 92 1011.1
20260905234604 25 0 0.0 3.2 0.00 0.08 0.08 91 1010.9
20260905233058 25 0 0.0 3.2 0.00 0.08 0.08 92 1010.7
20260905231602 25 0 0.0 0.0 0.00 0.08 0.08 91 1010.5
20260905230104 25 0 0.0 0.0 0.00 0.08 0.08 92 1010.0
20260905224608 24 0 0.0 1.6 0.00 0.08 0.08 92 1009.7
20260905223102 24 0 0.0 4.8 0.03 0.08 0.08 93 1009.9
20260905221603 24 0 0.0 0.0 0.08 0.08 0.08 93 1009.9
20260905220118 24 0 0.0 0.0 0.08 0.08 0.08 92 1010.3
20260905214602 25 0 0.0 1.6 0.08 0.08 0.08 90 1010.1
20260905213107 25 0 0.0 6.4 0.05 0.05 0.05 86 1010.8
20260905211609 26 0 1.6 8.0 0.00 0.00 0.00 79 1010.6
20260905210104 27 0 1.6 12.9 0.00 0.00 0.00 72 1010.1
20260905204602 28 65 0.0 9.7 0.00 0.00 0.00 70 1010.3
20260905203103 29 61 4.8 33.8 0.00 0.00 0.00 66 1009.8
20260905201623 31 29 6.4 17.7 0.00 0.00 0.00 62 1010.4
20260905200100 35 352 1.6 9.7 0.00 0.00 0.00 52 1009.4
20260905194604 35 279 4.8 11.3 0.00 0.00 0.00 52 1009.4
20260905193101 35 84 1.6 6.4 0.00 0.00 0.00 52 1009.4
20260905191604 35 51 3.2 4.8 0.00 0.00 0.00 56 1009.2
20260905190113 35 0 0.0 4.8 0.00 0.00 0.00 53 1009.5
20260905184604 36 0 0.0 3.2 0.00 0.00 0.00 50 1009.5
20260905183125 36 0 0.0 8.0 0.00 0.00 0.00 52 1009.7
20260905181605 35 248 3.2 6.4 0.00 0.00 0.00 53 1010.0
20260905180109 35 321 1.6 6.4 0.00 0.00 0.00 54 1010.5
20260905174559 35 263 3.2 11.3 0.00 0.00 0.00 54 1011.0
20260905173101 35 272 3.2 17.7 0.00 0.00 0.00 53 1011.2
20260905171605 35 280 6.4 14.5 0.00 0.00 0.00 55 1011.6
20260905170100 35 248 3.2 11.3 0.00 0.00 0.00 57 1011.8
20260905164607 34 280 4.8 12.9 0.00 0.00 0.00 57 1012.0
20260905163105 34 311 3.2 14.5 0.00 0.00 0.00 57 1012.2
20260905161557 33 304 1.6 8.0 0.00 0.00 0.00 57 1012.3
20260905160114 33 296 3.2 9.7 0.00 0.00 0.00 61 1012.6
20260905154601 32 306 1.6 11.3 0.00 0.00 0.00 62 1012.8
20260905153112 32 269 1.6 8.0 0.00 0.00 0.00 64 1013.1
20260905151609 31 260 4.8 11.3 0.00 0.00 0.00 66 1013.0
20260905150104 31 265 0.0 8.0 0.00 0.00 0.00 70 1013.1
20260905144604 30 239 4.8 12.9 0.00 0.00 0.00 71 1013.0
20260905143107 30 265 1.6 11.3 0.00 0.00 0.00 73 1013.2
20260905141559 29 294 3.2 8.0 0.00 0.00 0.00 74 1013.0
20260905140109 28 267 1.6 6.4 0.00 0.00 0.00 79 1013.0
20260905134600 27 246 4.8 11.3 0.00 0.00 0.00 82 1012.8
20260905133107 27 254 3.2 12.9 0.00 0.00 0.00 85 1012.9
20260905131610 26 252 6.4 12.9 0.00 0.00 0.00 86 1013.1
20260905130105 25 244 3.2 8.0 0.00 0.00 0.00 88 1013.1
20260905124605 25 253 3.2 6.4 0.00 0.00 0.00 90 1013.1
20260905123110 25 241 3.2 6.4 0.00 0.00 0.00 91 1013.2
20260905121602 24 242 0.0 4.8 0.00 0.00 0.00 91 1013.2
20260905120114 23 0 0.0 4.8 0.00 0.00 0.00 91 1013.2
20260905114604 23 0 0.0 0.0 0.00 0.00 0.00 91 1013.0